Home > Weather > Katowice > Past weeks

Flag for Poland Weather for the Past 2 Weeks in Katowice, Poland

Now
63 °F

Passing clouds.


Feels Like: 63 °F
Forecast: 45 / 65 °F
Wind: 8 mph from Northeast

Location: Katowice Airport

Current Time: May 6, 2016 at 10:12:56 AM

Latest Report: May 6, 2016 at 9:30 AM


Visibility: N/A

Pressure: 30.18 "Hg

Humidity: 42%

Dew Point: 39 °F

Location of KatowiceLocation

Historic Weather in Katowice — Graph

°F

Katowice Temperature Yesterday

Maximum temperature yesterday: 66 °F (at 3:00 PM)
Minimum temperature yesterday: 43 °F (at 12:00 AM)
Average temperature yesterday: 54 °F

High & Low Weather Summary for the Past Weeks

 TemperatureHumidityPressure
High66 °F (May 5, 3:00 PM)100% (Apr 24, 4:30 AM)30.30 "Hg (Apr 24, 4:30 AM)
Low23 °F (Apr 26, 6:00 AM)24% (Apr 23, 1:30 PM)29.59 "Hg (Apr 24, 12:30 AM)
Average47 °F72%29.97 "Hg
* Reported Apr 21 9:00 AM — May 6 9:00 AM, Katowice, Weather by CustomWeather, © 2016

Note: Actual official high and low records may vary slightly from our data, if they occured in-between our weather recording intervals... More about our weather records

Advertising

Katowice Weather History for the Previous 24 Hours

Scroll right to see more
 ConditionsComfort  
Time TempWeatherWind HumidityBarometerVisibility
9:00 AM
Fri, May 6
61 °FSunny.5 mph48%30.18 "Hg10 mi
8:30 AM59 °FSunny.2 mph55%30.18 "Hg10 mi
8:00 AM55 °FSunny.1 mph72%30.18 "Hg10 mi
7:30 AM50 °FSunny.1 mph82%30.18 "Hg10 mi
7:00 AM46 °FSunny.1 mph87%30.18 "Hg10 mi
6:30 AM43 °FClear.1 mph87%30.18 "Hg5 mi
6:00 AM39 °FFog.1 mph93%30.18 "Hg4 mi
5:30 AM37 °FFog.2 mph100%30.18 "Hg4 mi
5:00 AM37 °FFog.2 mph100%30.18 "Hg4 mi
4:30 AM39 °FFog.1 mph93%30.18 "Hg4 mi
4:00 AM39 °FClear.1 mph100%30.18 "Hg4 mi
3:30 AM41 °FClear.1 mph93%30.18 "Hg4 mi
3:00 AM41 °FClear.1 mph93%30.18 "Hg4 mi
2:30 AM41 °FClear.1 mph93%30.18 "Hg4 mi
2:00 AM43 °FClear.1 mph93%30.18 "Hg4 mi
1:30 AM43 °FPassing clouds.5 mph93%30.18 "HgN/A
1:00 AM46 °FClear.2 mph87%30.18 "Hg10 mi
12:30 AM45 °FClear.2 mph93%30.21 "Hg10 mi
12:00 AM46 °FClear.2 mph87%30.21 "Hg10 mi
11:30 PM
Thu, May 5
46 °FClear.2 mph93%30.21 "Hg10 mi
11:00 PM48 °FClear.2 mph87%30.21 "Hg10 mi
10:30 PM48 °FClear.1 mph87%30.21 "Hg10 mi
10:00 PM52 °FClear.2 mph77%30.21 "Hg10 mi
9:30 PM54 °FClear.2 mph72%30.21 "Hg10 mi
9:00 PM55 °FSunny.2 mph67%30.21 "Hg10 mi
8:30 PM57 °FSunny.3 mph63%30.21 "Hg10 mi
8:00 PM59 °FSunny.5 mph59%30.21 "Hg10 mi
7:30 PM61 °FSunny.6 mph55%30.21 "Hg10 mi
7:00 PM63 °FSunny.7 mph52%30.18 "Hg10 mi
6:30 PM63 °FPassing clouds.9 mph52%30.18 "HgN/A
6:00 PM64 °FPassing clouds.9 mph46%30.18 "HgN/A
5:30 PM66 °FPassing clouds.13 mph46%30.18 "HgN/A
5:00 PM64 °FPassing clouds.10 mph49%30.21 "HgN/A
4:30 PM64 °FPassing clouds.14 mph49%30.21 "HgN/A
4:00 PM66 °FPassing clouds.12 mph46%30.21 "HgN/A
3:30 PM66 °FScattered clouds.8 mph46%30.21 "HgN/A
3:00 PM66 °FPassing clouds.13 mph46%30.21 "HgN/A
2:30 PM64 °FPassing clouds.12 mph49%30.24 "HgN/A
2:00 PM63 °FScattered clouds.10 mph52%30.24 "HgN/A
1:30 PM64 °FScattered clouds.9 mph56%30.24 "HgN/A
1:00 PM63 °FScattered clouds.9 mph59%30.24 "HgN/A
12:30 PM61 °FPartly sunny.8 mph59%30.24 "HgN/A
12:00 PM61 °FScattered clouds.6 mph63%30.27 "HgN/A
11:30 AM61 °FScattered clouds.3 mph68%30.27 "HgN/A
11:00 AM59 °FPassing clouds.5 mph63%30.27 "HgN/A
10:30 AM55 °FPassing clouds.5 mph72%30.27 "HgN/A
10:00 AM54 °FScattered clouds.5 mph77%30.27 "HgN/A
Weather by CustomWeather, © 2016

See weather overviewHow to use our weather pages